Savannah, GA

2:47 PM EDT on March 28, 2017 (GMT -0400)
Savannah International

Weather History for KSAV - March, 2013

Change the Weather History Date:

Tuesday, March 26, 2013

  Actual Average Record
Temperature  
Mean Temperature 44 °F 61 °F  
Max Temperature 53 °F 73 °F 88 °F (1929)
Min Temperature 34 °F 50 °F 34 °F (1979)
Degree Days  
Heating Degree Days 21 5  
Month to date heating degree days 296 187  
Since 1 July heating degree days 1518 1704  
Cooling Degree Days 0 1  
Month to date cooling degree days 3 26  
Year to date cooling degree days 31 36  
Moisture  
Dew Point 23 °F    
Average Humidity 51    
Maximum Humidity 69    
Minimum Humidity 33    
Precipitation  
Precipitation 0.00 in 0.12 in 1.40 in (1892)
Month to date precipitation 2.01 3.10  
Year to date precipitation 12.31 9.58  
Snow  
Snow 0.00 in 0.00 in - ()
Month to date snowfall 0.0  
Since 1 July snowfall 0.0 0.3  
Snow Depth 0.00 in    
Sea Level Pressure  
Sea Level Pressure 30.11 in    
Wind  
Wind Speed 14 mph (WNW)    
Max Wind Speed 26 mph    
Max Gust Speed 39 mph    
Visibility 10 miles    
Events      
T = Trace of Precipitation, MM = Missing Value Source: NWS Daily Summary

Daily Weather History Graph

Daily Weather History Graph

Search for Another Location

Airport or City:

Trip Planner

Search our weather history database for the weather conditions in past years. The results will help you decide how hot, cold, wet, or windy it might be!

Date:

Astronomy

Mar. 26, 2013 Rise Set
Actual Time 7:20 AM EDT 7:40 PM EDT
Civil Twilight 6:56 AM EDT 8:05 PM EDT
Nautical Twilight 6:27 AM EDT 8:33 PM EDT
Astronomical Twilight 5:58 AM EDT 9:02 PM EDT
Moon 7:14 PM EDT (3/26) 6:35 AM EDT (3/26)
Length of Visible Light 13h 09m
Length of Day
12h 20m
Waxing Gibbous, 99% of the Moon is Illuminated
Mar 26
Waxing Gibbous
Mar 27
Full
Apr 3
Last Quarter
Apr 10
New
Apr 18
First Quarter

Hourly Weather History & Observations

Time (EDT) Temp. Windchill Dew Point Humidity Pressure Visibility Wind Dir Wind Speed Gust Speed Precip Events Conditions
12:53 AM 42.1 °F 33.9 °F 19.9 °F 41% 30.05 in 10.0 mi NW 17.3 mph 27.6 mph N/A   Clear
1:53 AM 39.9 °F 32.5 °F 21.0 °F 47% 30.06 in 10.0 mi WNW 12.7 mph 23.0 mph N/A   Clear
2:53 AM 39.0 °F 32.8 °F 21.0 °F 49% 30.06 in 10.0 mi WNW 9.2 mph - N/A   Clear
3:53 AM 39.0 °F 31.4 °F 21.0 °F 49% 30.05 in 10.0 mi WNW 12.7 mph - N/A   Clear
4:53 AM 37.0 °F 30.4 °F 21.9 °F 54% 30.05 in 10.0 mi West 9.2 mph - N/A   Clear
5:53 AM 35.1 °F 27.9 °F 24.1 °F 64% 30.06 in 10.0 mi West 9.2 mph - N/A   Clear
6:53 AM 34.0 °F 25.5 °F 24.1 °F 67% 30.07 in 10.0 mi West 11.5 mph - N/A   Clear
7:53 AM 35.1 °F 27.9 °F 24.1 °F 64% 30.09 in 10.0 mi West 9.2 mph - N/A   Clear
8:53 AM 39.0 °F 30.3 °F 24.1 °F 55% 30.10 in 10.0 mi West 16.1 mph 23.0 mph N/A   Clear
9:53 AM 42.1 °F 33.6 °F 24.1 °F 49% 30.10 in 10.0 mi WNW 18.4 mph 28.8 mph N/A   Clear
10:53 AM 45.0 °F 37.1 °F 23.0 °F 42% 30.09 in 10.0 mi West 19.6 mph 26.5 mph N/A   Partly Cloudy
11:53 AM 48.0 °F - 24.1 °F 39% 30.09 in 10.0 mi WNW 21.9 mph 26.5 mph N/A   Scattered Clouds
12:53 PM 50.0 °F - 24.1 °F 36% 30.09 in 10.0 mi WNW 20.7 mph - N/A   Scattered Clouds
1:53 PM 50.0 °F - 24.1 °F 36% 30.08 in 10.0 mi WNW 21.9 mph 29.9 mph N/A   Mostly Cloudy
2:53 PM 50.0 °F - 24.1 °F 36% 30.09 in 10.0 mi NW 17.3 mph 28.8 mph N/A   Mostly Cloudy
3:53 PM 52.0 °F - 24.1 °F 34% 30.09 in 10.0 mi WNW 21.9 mph 29.9 mph N/A   Mostly Cloudy
4:53 PM 50.0 °F - 23.0 °F 35% 30.10 in 10.0 mi WNW 24.2 mph 33.4 mph N/A   Mostly Cloudy
5:53 PM 50.0 °F - 23.0 °F 35% 30.12 in 10.0 mi WNW 16.1 mph 28.8 mph N/A   Mostly Cloudy
6:53 PM 48.0 °F - 23.0 °F 37% 30.15 in 10.0 mi NW 17.3 mph 26.5 mph N/A   Scattered Clouds
7:53 PM 46.0 °F 40.2 °F 24.1 °F 42% 30.17 in 10.0 mi WNW 12.7 mph - N/A   Partly Cloudy
8:53 PM 44.1 °F 38.6 °F 24.1 °F 45% 30.19 in 10.0 mi WNW 10.4 mph 18.4 mph N/A   Partly Cloudy
9:53 PM 43.0 °F 38.2 °F 25.0 °F 49% 30.22 in 10.0 mi WNW 8.1 mph - N/A   Clear
10:53 PM 41.0 °F 35.8 °F 26.1 °F 55% 30.25 in 10.0 mi West 8.1 mph - N/A   Clear
11:53 PM 39.0 °F 34.0 °F 27.0 °F 62% 30.25 in 10.0 mi West 6.9 mph - N/A   Clear